Location: Goettingen
(51.5300°N, 9.9433°E)
Time: 23:25:44
(UTC+02:00)

N. Korean satellite - Pass Details

Date: 30 September 2021
Orbit: 450 x 494 km, 97.3° (Epoch: 28 October)

Event Time Altitude Azimuth Distance (km) Brightness Sun altitude
Rises 06:15:35 0° 19° (NNE) 2,544 10.6 -10.7°
Reaches altitude 10° 06:17:45 10° 28° (NNE) 1,668 9.8 -10.4°
Maximum altitude 06:21:07 37° 98° (E) 774 8.3 -9.9°
Drops below altitude 10° 06:24:29 10° 167° (SSE) 1,676 9.4 -9.4°
Sets 06:26:40 0° 175° (S) 2,558 10.2 -9.0°
